Weather Roundup
Issued by NWS Springfield, MO

Home | Current Version | Previous Version | Text Only | Print | Product List | Glossary On
Versions: 1 2 3 4 5 6 7 8 9 10 11 12 13 14 15 16 17 18 19 20 21 22 23 24 25 26 27 28 29 30 31 32 33 34 35 36 37 38 39 40 41 42 43 44 45 46 47 48 49 50
000
NZUS99 KSGF 011959
HRRSGF

HOURLY WEATHER
NATIONAL WEATHER SERVICE SPRINGFIELD MO
200 PM CST SUN FEB 01 2015

......SGF CWA......

CITY           SKY/WX    TMP DP  RH WIND       PRES   REMARKS
SPRINGFIELD    CLOUDY    36  32  85 NW15G29   29.79R WCI  27
JOPLIN         CLOUDY    31  26  82 NW18G33   29.91R WCI  19
WEST PLAINS    CLOUDY    45  42  89 W14G21    29.69S
ROLLA          CLOUDY    41  38  89 W10       29.64S
OSAGE BEACH    PTSUNNY   37  34  87 W9G21     29.71R WCI  31
BRANSON        CLOUDY    37  34  87 NW18G37   29.80R WCI  27

......SURROUNDING SGF CWA......

CITY           SKY/WX    TMP DP  RH WIND       PRES   REMARKS
CHANUTE        CLOUDY    26  19  74 NW22G35   29.98R WCI  12
PARSONS        CLOUDY    28  20  71 NW28G36   30.00R WCI  13
COFFEYVILLE    CLOUDY    29  20  69 NW23G36   30.01R WCI  15
EMPORIA        MIX PCPN  20  13  74 NW26G38   30.02R WCI   2
ROGERS AR      CLOUDY    34  30  86 NW14G28   29.87R WCI  24
SILOAM SPRINGS CLOUDY   N/A N/A N/A NW25      29.91S
HARRISON AR    CLOUDY    37  35  92 NW22G32   29.78R WCI  26
NEAR YELLVILLE CLOUDY   N/A N/A N/A W25G33    29.76R

......KANSAS AND MISSOURI......

CITY           SKY/WX    TMP DP  RH WIND       PRES   REMARKS
KANSAS CTY INT LGT SNOW  24  20  84 NW22G37   29.87R FOG     WCI   9
DOWNTOWN KC    FLURRIES  27  20  75 NW25G37   29.87R WCI  12
COLUMBIA       CLOUDY    36  35  96 NW13      29.68S FOG     WCI  27
SEDALIA        FLURRIES  35  32  88 NW15G24   29.75R WCI  25
ST JOSEPH      SNOW      23  19  85 NW32G40   29.91S VSB 1/4 WCI   5
ST LOUIS       CLOUDY    41  37  86 W9        29.64S
SPIRIT OF STL  CLOUDY    41  37  86 W7        29.64S
KIRKSVILLE     LGT SNOW  31  30  96 N17G26    29.71R VSB 3/4 WCI  19
WICHITA        FLURRIES  24  13  62 N28G41    30.10R WCI   7
TOPEKA         LGT SNOW  22  15  75 NW25G39   30.01R WCI   5
OLATHE         MIX PCPN  26  21  81 NW23G33   29.86R WCI  11

......TENNESSEE......

CITY           SKY/WX    TMP DP  RH WIND       PRES   REMARKS
MEMPHIS        LGT RAIN  59  55  87 SW13G20   29.69F FOG
NASHVILLE      LGT RAIN  52  50  93 S16       29.75F FOG

......ARKANSAS.......

CITY           SKY/WX    TMP DP  RH WIND       PRES   REMARKS
FAYETTEVILLE   CLOUDY    35  31  85 W17G30    29.88R WCI  25
FT SMITH       CLOUDY    41  31  67 W24G33    29.92R
LITTLE ROCK    CLOUDY    53  47  79 NW17G24   29.77S

......OKLAHOMA.......

CITY           SKY/WX    TMP DP  RH WIND       PRES   REMARKS
TULSA          CLOUDY    34  22  61 NW26G37   30.02R WCI  21
PONCA CITY     CLOUDY    32  19  58 NW25G37   30.09R WCI  19
MCALESTER      PTSUNNY   42  30  62 NW20G28   30.01R
OKLAHOMA CITY  PTSUNNY   39  23  52 N31G43    30.07R WCI  27

......IOWA............

CITY           SKY/WX    TMP DP  RH WIND       PRES   REMARKS
DES MOINES     SNOW      20  15  81 N20G31    29.94R VSB 1/2 WCI   4
QUAD CITIES    HVY SNOW  24  20  84 NE23G32   29.75F VSB 1/4 WCI   9

......ILLINOIS........

CITY           SKY/WX    TMP DP  RH WIND       PRES   REMARKS
QUINCY         LGT SNOW  33  31  92 N10       29.65S FOG     WCI  25
CHICAGO        SNOW      24  22  91 NE23G31   29.77S VSB 1/2 WCI   9



USA.gov is the U.S. government's official web portal to all federal, state and local government web resources and services.